Location: Newark
(40.7119°N, 74.0097°W)
Time: 22:52:46
(UTC+00:00)

Tiangong - Pass Details

Date: 25 June 2021
Orbit: 374 x 386 km, 41.5° (Epoch: 27 July)

Event Time Altitude Azimuth Distance (km) Brightness Sun altitude
Exits shadow 07:06:54 72° 100° (E) 399 1.1 -19.3°
Drops below altitude 10° 07:09:46 10° 80° (E) 1,391 4.4 -19.0°
Sets 07:11:51 0° 80° (E) 2,247 5.6 -18.8°
